Home   Weather   Grinnell   Past weeks
Flag for USA

Past Weather in Grinnell, Iowa, USA — Yesterday and Last 2 Weeks

Now
32 °F

Partly sunny.


Feels Like: 23 °F
Forecast: 36 / 23 °F
Wind: 12 mph from North

Location: Newton Municipal

Current Time: Dec 6, 2019 at 12:33:45 pm

Latest Report: Dec 6, 2019 at 11:55 am


Visibility: 10 mi

Pressure: 30.38 "Hg

Humidity: 80%

Dew Point: 27 °F

Location of GrinnellLocation

Past Weather in Grinnell — Graph

°F

Grinnell Temperature Yesterday

Maximum temperature yesterday: 55 °F (at 1:15 pm)
Minimum temperature yesterday: 27 °F (at 2:15 am)
Average temperature yesterday: 39 °F

High & Low Weather Summary for the Past Weeks

 TemperatureHumidityPressure
High55 °F (Nov 24, 2:55 pm)100% (Nov 22, 4:55 am)30.52 "Hg (Nov 22, 4:55 am)
Low18 °F (Dec 2, 7:15 am)41% (Nov 25, 1:35 pm)29.24 "Hg (Nov 26, 11:35 pm)
Average35 °F87%29.90 "Hg
* Reported Nov 21 11:15 am — Dec 6 11:15 am, Grinnell. Weather by CustomWeather, © 2019

Note: Actual official high and low records may vary slightly from our data, if they occured in-between our weather recording intervals... More about our weather records

Grinnell Weather History for the Previous 24 Hours

Scroll right to see more
 ConditionsComfort  
Time TempWeatherWind HumidityBarometerVisibility
11:15 am
Fri, Dec 6
30 °FPartly sunny.13 mph86%30.38 "Hg10 mi
10:55 am30 °FPartly sunny.14 mph86%30.38 "Hg10 mi
10:35 am30 °FPartly sunny.10 mph86%30.37 "Hg10 mi
10:15 am30 °FScattered clouds.14 mph86%30.37 "Hg10 mi
9:55 am30 °FPassing clouds.14 mph86%30.36 "Hg10 mi
9:35 am28 °FPassing clouds.13 mph93%30.36 "Hg10 mi
9:15 am28 °FSunny.14 mph93%30.34 "Hg10 mi
8:35 am30 °FSunny.12 mph86%30.33 "Hg10 mi
8:15 am30 °FSunny.8 mph86%30.32 "Hg10 mi
7:55 am28 °FPassing clouds.10 mph86%30.31 "Hg10 mi
7:35 am30 °FPartly sunny.8 mph80%30.31 "Hg10 mi
7:15 am30 °FOvercast.12 mph86%30.30 "Hg10 mi
6:55 am30 °FOvercast.10 mph86%30.29 "Hg10 mi
6:35 am32 °FOvercast.15 mph80%30.28 "Hg10 mi
6:15 am32 °FOvercast.14 mph80%30.27 "Hg10 mi
5:55 am32 °FOvercast.22 mph80%30.26 "Hg10 mi
5:35 am32 °FOvercast.16 mph80%30.25 "Hg10 mi
5:15 am32 °FOvercast.14 mph87%30.24 "Hg10 mi
4:55 am32 °FOvercast.10 mph87%30.24 "Hg10 mi
4:35 am32 °FOvercast.16 mph80%30.23 "Hg10 mi
4:15 am32 °FOvercast.15 mph87%30.22 "HgN/A
3:55 am32 °FOvercast.20 mph87%30.21 "Hg10 mi
3:35 am32 °FOvercast.18 mph87%30.20 "Hg10 mi
3:15 am32 °FOvercast.21 mph87%30.20 "Hg10 mi
2:35 am32 °FOvercast.20 mph93%30.18 "Hg10 mi
2:15 am32 °FOvercast.20 mph93%30.17 "Hg10 mi
1:55 am32 °FOvercast.18 mph93%30.16 "Hg10 mi
1:35 am32 °FPassing clouds.16 mph93%30.14 "Hg10 mi
1:15 am32 °FClear.17 mph93%30.13 "Hg10 mi
12:35 am32 °FClear.18 mph100%30.11 "Hg10 mi
11:55 pm
Thu, Dec 5
34 °FClear.20 mph93%30.08 "Hg10 mi
11:35 pm34 °FClear.17 mph93%30.07 "Hg10 mi
11:15 pm34 °FClear.18 mph93%30.07 "Hg10 mi
10:55 pm34 °FClear.16 mph93%30.05 "Hg10 mi
10:35 pm34 °FClear.13 mph93%30.04 "Hg10 mi
9:55 pm37 °FClear.20 mph81%30.01 "Hg10 mi
9:35 pm37 °FClear.14 mph87%29.99 "Hg10 mi
9:15 pm39 °FClear.13 mph87%29.98 "Hg10 mi
8:55 pm41 °FClear.12 mph87%29.97 "Hg10 mi
8:35 pm45 °FClear.14 mph81%29.96 "Hg10 mi
8:15 pm46 °FClear.14 mph76%29.95 "Hg10 mi
7:55 pm46 °FClear.8 mph66%29.94 "Hg10 mi
7:35 pm46 °FClear.7 mph71%29.93 "Hg10 mi
7:15 pm46 °FClear.6 mph71%29.93 "Hg10 mi
6:35 pm48 °FClear.5 mph66%29.91 "Hg10 mi
6:15 pm48 °FClear.5 mph66%29.91 "Hg10 mi
5:55 pm48 °FClear.5 mph66%29.91 "Hg10 mi
5:35 pm50 °FClear.6 mph62%29.90 "Hg10 mi
5:15 pm48 °FClear.5 mph71%29.89 "Hg10 mi
4:35 pm52 °FSunny.No wind62%29.88 "Hg10 mi
3:35 pm55 °FSunny.3 mph55%29.86 "Hg10 mi
3:15 pm55 °FSunny.7 mph55%29.86 "Hg10 mi
2:55 pm55 °FSunny.7 mph55%29.86 "Hg10 mi
2:35 pm55 °FSunny.10 mph55%29.86 "Hg10 mi
2:15 pm55 °FSunny.8 mph55%29.86 "Hg10 mi
1:55 pm55 °FSunny.9 mph55%29.86 "Hg10 mi
1:35 pm55 °FSunny.9 mph55%29.86 "Hg10 mi
1:15 pm55 °FSunny.12 mph55%29.87 "Hg10 mi
12:35 pm52 °FSunny.8 mph62%29.88 "Hg10 mi
12:15 pm50 °FSunny.10 mph67%29.89 "Hg10 mi
Weather by CustomWeather, © 2019

See weather overview

Advertising